N115MF NZWN-NCRG

Flight info

Callsign N115MF
Flight time 3h 52m
Altitude 37000
Route WN Q825 ATVOX DCT AVDEG DCT BOMTI/N0460F390 L508 VEMET/N0459F410 L508 RG
Aircraft FA50/M-SDFGHIM1RWXY/H

Departure

Time 2026-04-17 00:52
Airport Wellington International Airport (NZWN)

Arrival

Time 2026-04-17 04:44
Airport Rarotonga International Airport (NCRG)
Time Latitude Longitude Altitude Speed Heading
2026-04-17 00:45 -41.32472 174.80419 9 ft 0 kts 343°
2026-04-17 00:49 -41.32491 174.80439 9 ft 13 kts 176°
2026-04-17 00:49 -41.32529 174.80551 9 ft 19 kts 156°
2026-04-17 00:50 -41.32664 174.80562 9 ft 14 kts 155°
2026-04-17 00:50 -41.32684 174.80711 9 ft 20 kts 92°
2026-04-17 00:50 -41.32748 174.80814 9 ft 18 kts 183°
2026-04-17 00:50 -41.32930 174.80802 9 ft 27 kts 182°
2026-04-17 00:51 -41.33123 174.80788 9 ft 29 kts 182°
2026-04-17 00:51 -41.33314 174.80779 9 ft 26 kts 183°
2026-04-17 00:51 -41.33492 174.80766 9 ft 25 kts 185°
2026-04-17 00:51 -41.33553 174.80641 9 ft 17 kts 333°
2026-04-17 00:52 -41.33243 174.80652 9 ft 84 kts
2026-04-17 00:52 -41.32468 174.80719 213 ft 125 kts
2026-04-17 00:52 -41.31589 174.80839 896 ft 136 kts
2026-04-17 00:52 -41.30527 174.80950 1438 ft 167 kts
2026-04-17 00:53 -41.29305 174.81058 2260 ft 184 kts
2026-04-17 00:53 -41.27998 174.81378 3173 ft 198 kts 15°
2026-04-17 00:53 -41.26705 174.82052 4159 ft 206 kts 20°
2026-04-17 00:53 -41.25381 174.82858 5190 ft 212 kts 21°
2026-04-17 00:54 -41.24038 174.83722 6237 ft 217 kts 21°
2026-04-17 00:54 -41.22640 174.84642 7129 ft 231 kts 21°
2026-04-17 00:54 -41.21184 174.85600 8177 ft 235 kts 22°
2026-04-17 00:54 -41.19700 174.86573 9259 ft 241 kts 22°
2026-04-17 00:55 -41.18168 174.87573 10317 ft 248 kts 21°
2026-04-17 00:55 -41.16618 174.88599 11320 ft 255 kts 21°
2026-04-17 00:55 -41.14995 174.89699 12288 ft 262 kts 21°
2026-04-17 00:55 -41.13381 174.90819 13231 ft 267 kts 21°
2026-04-17 00:56 -41.11730 174.91983 14123 ft 271 kts 21°
2026-04-17 00:56 -41.10063 174.93171 14994 ft 274 kts 21°
2026-04-17 00:56 -41.08369 174.94390 15820 ft 278 kts 21°
2026-04-17 00:56 -41.06667 174.95629 16606 ft 282 kts 23°
2026-04-17 00:57 -41.05609 174.96678 17093 ft 293 kts 42°
2026-04-17 00:57 -41.04612 174.99082 17764 ft 307 kts 77°
2026-04-17 00:57 -41.04574 175.01902 18415 ft 309 kts 101°
2026-04-17 00:57 -41.05043 175.04681 19075 ft 310 kts 109°
2026-04-17 00:58 -41.05677 175.07424 19711 ft 312 kts 112°
2026-04-17 00:58 -41.06347 175.10171 20320 ft 315 kts 111°
2026-04-17 00:58 -41.06993 175.12958 20903 ft 318 kts 111°
2026-04-17 00:58 -41.07628 175.15773 21456 ft 320 kts 111°
2026-04-17 00:59 -41.08261 175.18621 21994 ft 323 kts 111°
2026-04-17 00:59 -41.08892 175.21492 22497 ft 326 kts 111°
2026-04-17 00:59 -41.09523 175.24387 23002 ft 328 kts 111°
2026-04-17 00:59 -41.10148 175.27268 23471 ft 329 kts 111°
2026-04-17 01:00 -41.10810 175.30187 23930 ft 331 kts 112°
2026-04-17 01:00 -41.11494 175.33121 24363 ft 333 kts 112°
2026-04-17 01:00 -41.12197 175.36057 24774 ft 335 kts 114°
2026-04-17 01:00 -41.13047 175.38922 25179 ft 333 kts 121°
2026-04-17 01:01 -41.14103 175.41643 25555 ft 331 kts 127°
2026-04-17 01:01 -41.15130 175.44402 25907 ft 341 kts 111°
2026-04-17 01:01 -41.15449 175.47563 26220 ft 351 kts 91°
2026-04-17 01:01 -41.15181 175.50804 26566 ft 354 kts 79°
2026-04-17 01:02 -41.14554 175.53977 26880 ft 357 kts 71°
2026-04-17 01:02 -41.13703 175.57074 27214 ft 358 kts 66°
2026-04-17 01:02 -41.12724 175.60082 27547 ft 360 kts 63°
2026-04-17 01:02 -41.11645 175.63094 27894 ft 362 kts 61°
2026-04-17 01:03 -41.10517 175.66075 28246 ft 365 kts 60°
2026-04-17 01:03 -41.09340 175.69088 28633 ft 367 kts 59°
2026-04-17 01:03 -41.08145 175.72097 29013 ft 370 kts 59°
2026-04-17 01:03 -41.06934 175.75122 29421 ft 373 kts 59°
2026-04-17 01:04 -41.05713 175.78164 29838 ft 375 kts 59°
2026-04-17 01:04 -41.04478 175.81239 30262 ft 379 kts 59°
2026-04-17 01:04 -41.03238 175.84331 30725 ft 381 kts 59°
2026-04-17 01:04 -41.02031 175.87469 31205 ft 385 kts 63°
2026-04-17 01:05 -41.00952 175.90732 31701 ft 388 kts 66°
2026-04-17 01:05 -40.99953 175.94071 32201 ft 392 kts 68°
2026-04-17 01:05 -40.99002 175.97425 32686 ft 396 kts 68°
2026-04-17 01:05 -40.98051 176.00873 33232 ft 399 kts 69°
2026-04-17 01:06 -40.97105 176.04346 33766 ft 403 kts 69°
2026-04-17 01:06 -40.96150 176.07859 34322 ft 408 kts 69°
2026-04-17 01:06 -40.95182 176.11419 34901 ft 411 kts 69°
2026-04-17 01:06 -40.94207 176.14996 35457 ft 415 kts 69°
2026-04-17 01:07 -40.93233 176.18553 35975 ft 418 kts 69°
2026-04-17 01:07 -40.92235 176.22183 36474 ft 422 kts 69°
2026-04-17 01:07 -40.91226 176.25843 36954 ft 425 kts 68°
2026-04-17 01:07 -40.90204 176.29533 37406 ft 428 kts 68°
2026-04-17 01:08 -40.89173 176.33243 37834 ft 431 kts 68°
2026-04-17 01:08 -40.88134 176.36974 38247 ft 434 kts 68°
2026-04-17 01:08 -40.87083 176.40736 38641 ft 437 kts 68°
2026-04-17 01:08 -40.86022 176.44524 39018 ft 440 kts 68°
2026-04-17 01:09 -40.84969 176.48275 39369 ft 442 kts 68°
2026-04-17 01:09 -40.83896 176.52091 39718 ft 444 kts 68°
2026-04-17 01:09 -40.82815 176.55926 40054 ft 447 kts 68°
2026-04-17 01:09 -40.81728 176.59776 40356 ft 449 kts 68°
2026-04-17 01:10 -40.80633 176.63647 40666 ft 451 kts 68°
2026-04-17 01:10 -40.79520 176.67574 40748 ft 459 kts 68°
2026-04-17 01:10 -40.78391 176.71544 40851 ft 466 kts 68°
2026-04-17 01:10 -40.77242 176.75584 40910 ft 474 kts 68°
2026-04-17 01:11 -40.74880 176.83861 40917 ft 490 kts 68°
2026-04-17 01:11 -40.72441 176.92383 40915 ft 503 kts 68°
2026-04-17 01:12 -40.69949 177.01068 40914 ft 514 kts 68°
2026-04-17 01:12 -40.67393 177.09946 40914 ft 522 kts 68°
2026-04-17 01:13 -40.64796 177.18938 40913 ft 528 kts 68°
2026-04-17 01:13 -40.62169 177.28007 40913 ft 531 kts 68°
2026-04-17 01:14 -40.59523 177.37109 40912 ft 533 kts 68°
2026-04-17 01:14 -40.56864 177.46222 40912 ft 534 kts 68°
2026-04-17 01:15 -40.54190 177.55353 40912 ft 535 kts 68°
2026-04-17 01:15 -40.51521 177.64430 40912 ft 536 kts 68°
2026-04-17 01:16 -40.48828 177.73559 40911 ft 536 kts 67°
2026-04-17 01:16 -40.46122 177.82696 40911 ft 536 kts 67°
2026-04-17 01:17 -40.43410 177.91818 40911 ft 536 kts 67°
2026-04-17 01:17 -40.40688 178.00942 40911 ft 536 kts 67°
2026-04-17 01:18 -40.37644 178.09854 40911 ft 534 kts 58°
2026-04-17 01:18 -40.33608 178.17913 40911 ft 531 kts 51°
2026-04-17 01:19 -40.29104 178.25567 40911 ft 530 kts 47°
2026-04-17 01:19 -40.24435 178.33035 40911 ft 529 kts 47°
2026-04-17 01:20 -40.19721 178.40427 40944 ft 529 kts 46°
2026-04-17 01:20 -40.14998 178.47798 40960 ft 529 kts 46°
2026-04-17 01:21 -40.10273 178.55181 40962 ft 529 kts 46°
2026-04-17 01:21 -40.05586 178.62520 40963 ft 530 kts 46°
2026-04-17 01:22 -40.00868 178.69922 40964 ft 530 kts 46°
2026-04-17 01:22 -39.96156 178.77323 40965 ft 530 kts 47°
2026-04-17 01:23 -39.91457 178.84709 40965 ft 529 kts 47°
2026-04-17 01:23 -39.86756 178.92096 40966 ft 529 kts 47°
2026-04-17 01:24 -39.82060 178.99469 40967 ft 529 kts 47°
2026-04-17 01:24 -39.77360 179.06836 40967 ft 529 kts 47°
2026-04-17 01:25 -39.72657 179.14200 40968 ft 529 kts 47°
2026-04-17 01:25 -39.67981 179.21506 40969 ft 529 kts 47°
2026-04-17 01:26 -39.63269 179.28856 40969 ft 529 kts 47°
2026-04-17 01:26 -39.58556 179.36192 40969 ft 530 kts 47°
2026-04-17 01:27 -39.53832 179.43531 40970 ft 530 kts 46°
2026-04-17 01:27 -39.49102 179.50862 40970 ft 530 kts 46°
2026-04-17 01:28 -39.44366 179.58186 40971 ft 530 kts 46°
2026-04-17 01:28 -39.39659 179.65450 40971 ft 530 kts 46°
2026-04-17 01:29 -39.32539 179.76407 40972 ft 530 kts 46°
2026-04-17 01:30 -39.27793 179.83690 40972 ft 530 kts 46°
2026-04-17 01:30 -39.23035 179.90974 40975 ft 530 kts 46°
2026-04-17 01:31 -39.18277 179.98240 40976 ft 530 kts 46°
2026-04-17 01:31 -39.13519 -179.94508 40991 ft 530 kts 46°
2026-04-17 01:32 -39.08788 -179.87314 40999 ft 530 kts 46°
2026-04-17 01:32 -39.04020 -179.80082 40999 ft 529 kts 46°
2026-04-17 01:33 -38.99250 -179.72861 40999 ft 529 kts 46°
2026-04-17 01:33 -38.94484 -179.65665 40999 ft 529 kts 46°
2026-04-17 01:34 -38.89710 -179.58471 40999 ft 529 kts 46°
2026-04-17 01:34 -38.84932 -179.51288 40999 ft 529 kts 46°
2026-04-17 01:35 -38.80150 -179.44116 40999 ft 529 kts 46°
2026-04-17 01:35 -38.75391 -179.36995 40999 ft 528 kts 46°
2026-04-17 01:36 -38.70607 -179.29851 40999 ft 528 kts 46°
2026-04-17 01:36 -38.65820 -179.22719 40999 ft 528 kts 46°
2026-04-17 01:37 -38.61029 -179.15597 40999 ft 528 kts 46°
2026-04-17 01:37 -38.56234 -179.08487 40999 ft 528 kts 46°
2026-04-17 01:38 -38.51435 -179.01384 40999 ft 528 kts 46°
2026-04-17 01:38 -38.46624 -178.94280 40999 ft 528 kts 46°
2026-04-17 01:39 -38.41849 -178.87246 40999 ft 528 kts 45°
2026-04-17 01:39 -38.37038 -178.80174 40999 ft 528 kts 45°
2026-04-17 01:40 -38.32223 -178.73112 40999 ft 527 kts 45°
2026-04-17 01:40 -38.27403 -178.66058 40999 ft 527 kts 45°
2026-04-17 01:41 -38.22584 -178.59020 40999 ft 527 kts 45°
2026-04-17 01:41 -38.17790 -178.52035 40999 ft 527 kts 45°
2026-04-17 01:42 -38.12970 -178.45026 40999 ft 527 kts 45°
2026-04-17 01:42 -38.08144 -178.38025 40999 ft 527 kts 45°
2026-04-17 01:43 -38.03309 -178.31025 40999 ft 526 kts 45°
2026-04-17 01:43 -37.98475 -178.24042 40999 ft 526 kts 45°
2026-04-17 01:44 -37.93638 -178.17070 40999 ft 526 kts 45°
2026-04-17 01:44 -37.88827 -178.10151 40999 ft 526 kts 45°
2026-04-17 01:45 -37.83983 -178.03199 40999 ft 526 kts 45°
2026-04-17 01:45 -37.79948 -177.97421 40999 ft 526 kts 45°
2026-04-17 01:46 -37.75095 -177.90482 40999 ft 526 kts 45°
2026-04-17 01:46 -37.70244 -177.83563 40998 ft 526 kts 45°
2026-04-17 01:47 -37.65382 -177.76643 40998 ft 526 kts 45°
2026-04-17 01:47 -37.60525 -177.69744 40998 ft 526 kts 45°
2026-04-17 01:48 -37.55661 -177.62850 40998 ft 526 kts 45°
2026-04-17 01:48 -37.50830 -177.56017 40998 ft 525 kts 45°
2026-04-17 01:49 -37.45960 -177.49144 40998 ft 525 kts 45°
2026-04-17 01:49 -37.41088 -177.42283 40998 ft 525 kts 45°
2026-04-17 01:50 -37.36246 -177.35478 41000 ft 524 kts 45°
2026-04-17 01:50 -37.31361 -177.28627 41008 ft 524 kts 45°
2026-04-17 01:51 -37.26489 -177.21808 41009 ft 524 kts 45°
2026-04-17 01:51 -37.21617 -177.15005 41008 ft 523 kts 44°
2026-04-17 01:52 -37.16773 -177.08254 41008 ft 523 kts 44°
2026-04-17 01:52 -37.11898 -177.01473 41008 ft 523 kts 44°
2026-04-17 01:53 -37.07017 -176.94700 41008 ft 523 kts 44°
2026-04-17 01:53 -37.02138 -176.87943 41008 ft 523 kts 44°
2026-04-17 01:54 -36.97251 -176.81189 41008 ft 523 kts 44°
2026-04-17 01:54 -36.92395 -176.74491 41008 ft 523 kts 44°
2026-04-17 01:55 -36.87512 -176.67769 41008 ft 522 kts 44°
2026-04-17 01:55 -36.82625 -176.61057 41008 ft 522 kts 44°
2026-04-17 01:56 -36.77733 -176.54351 41008 ft 522 kts 44°
2026-04-17 01:56 -36.72841 -176.47658 41008 ft 521 kts 44°
2026-04-17 01:57 -36.67948 -176.40978 41008 ft 521 kts 44°
2026-04-17 01:57 -36.63057 -176.34315 41008 ft 521 kts 44°
2026-04-17 01:58 -36.58159 -176.27654 41007 ft 521 kts 44°
2026-04-17 01:58 -36.53297 -176.21056 41007 ft 520 kts 44°
2026-04-17 01:59 -36.48398 -176.14421 41007 ft 520 kts 44°
2026-04-17 01:59 -36.43495 -176.07796 41007 ft 520 kts 44°
2026-04-17 02:00 -36.38598 -176.01190 41007 ft 519 kts 44°
2026-04-17 02:00 -36.33698 -175.94595 41007 ft 519 kts 44°
2026-04-17 02:01 -36.28833 -175.88058 41007 ft 519 kts 44°
2026-04-17 02:01 -36.23930 -175.81485 41007 ft 519 kts 44°
2026-04-17 02:02 -36.19025 -175.74922 41007 ft 519 kts 44°
2026-04-17 02:02 -36.14118 -175.68368 41007 ft 519 kts 44°
2026-04-17 02:03 -36.09203 -175.61818 41007 ft 519 kts 44°
2026-04-17 02:03 -36.04289 -175.55281 41007 ft 519 kts 44°
2026-04-17 02:04 -35.99372 -175.48753 41007 ft 519 kts 44°
2026-04-17 02:04 -35.94485 -175.42277 41007 ft 518 kts 44°
2026-04-17 02:05 -35.89576 -175.35784 41006 ft 517 kts 44°
2026-04-17 02:05 -35.84671 -175.29309 41006 ft 516 kts 43°
2026-04-17 02:06 -35.79771 -175.22854 41006 ft 516 kts 44°
2026-04-17 02:06 -35.74862 -175.16401 41006 ft 515 kts 43°
2026-04-17 02:07 -35.69957 -175.09963 41000 ft 515 kts 43°
2026-04-17 02:07 -35.65086 -175.03583 40998 ft 514 kts 43°
2026-04-17 02:08 -35.60184 -174.97176 40998 ft 514 kts 43°
2026-04-17 02:08 -35.55280 -174.90783 40998 ft 513 kts 43°
2026-04-17 02:09 -35.50376 -174.84402 40998 ft 513 kts 43°
2026-04-17 02:09 -35.45472 -174.78033 40998 ft 513 kts 43°
2026-04-17 02:10 -35.40573 -174.71683 40998 ft 512 kts 43°
2026-04-17 02:10 -35.35674 -174.65344 40998 ft 512 kts 43°
2026-04-17 02:11 -35.30765 -174.59005 40998 ft 512 kts 43°
2026-04-17 02:11 -35.25883 -174.52712 40997 ft 512 kts 43°
2026-04-17 02:12 -35.20974 -174.46395 40997 ft 512 kts 43°
2026-04-17 02:12 -35.16064 -174.40090 40997 ft 511 kts 43°
2026-04-17 02:13 -35.11160 -174.33804 40997 ft 511 kts 43°
2026-04-17 02:13 -35.06282 -174.27562 40991 ft 510 kts 43°
2026-04-17 02:14 -35.01373 -174.21292 40990 ft 510 kts 43°
2026-04-17 02:14 -34.96469 -174.15040 40990 ft 509 kts 43°
2026-04-17 02:15 -34.91562 -174.08798 40990 ft 509 kts 43°
2026-04-17 02:15 -34.86689 -174.02608 40990 ft 509 kts 43°
2026-04-17 02:16 -34.81792 -173.96399 40985 ft 507 kts 43°
2026-04-17 02:16 -34.76898 -173.90205 40976 ft 506 kts 43°
2026-04-17 02:17 -34.72014 -173.84034 40975 ft 505 kts 43°
2026-04-17 02:17 -34.67173 -173.77931 40975 ft 505 kts 43°
2026-04-17 02:18 -34.62293 -173.71790 40975 ft 504 kts 43°
2026-04-17 02:18 -34.57417 -173.65663 40975 ft 504 kts 42°
2026-04-17 02:19 -34.52537 -173.59544 40975 ft 504 kts 42°
2026-04-17 02:19 -34.47654 -173.53431 40975 ft 504 kts 42°
2026-04-17 02:20 -34.42807 -173.47375 40975 ft 504 kts 42°
2026-04-17 02:20 -34.37921 -173.41280 40975 ft 503 kts 42°
2026-04-17 02:21 -34.33038 -173.35201 40975 ft 503 kts 42°
2026-04-17 02:21 -34.28182 -173.29166 40975 ft 503 kts 42°
2026-04-17 02:22 -34.23301 -173.23109 40975 ft 503 kts 42°
2026-04-17 02:22 -34.18414 -173.17056 40975 ft 502 kts 42°
2026-04-17 02:23 -34.13529 -173.11017 40975 ft 502 kts 42°
2026-04-17 02:23 -34.08676 -173.05027 40975 ft 502 kts 42°
2026-04-17 02:24 -34.03794 -172.99011 40975 ft 501 kts 41°
2026-04-17 02:24 -33.98909 -172.93003 40975 ft 500 kts 42°
2026-04-17 02:25 -33.94041 -172.87026 40975 ft 498 kts 42°
2026-04-17 02:25 -33.89210 -172.81104 40974 ft 498 kts 41°
2026-04-17 02:26 -33.84356 -172.75164 40974 ft 497 kts 41°
2026-04-17 02:26 -33.79497 -172.69229 40974 ft 497 kts 41°
2026-04-17 02:27 -33.74638 -172.63305 40974 ft 497 kts 41°
2026-04-17 02:27 -33.69785 -172.57399 40974 ft 496 kts 41°
2026-04-17 02:28 -33.64956 -172.51531 40974 ft 496 kts 41°
2026-04-17 02:28 -33.60103 -172.45644 40974 ft 496 kts 41°
2026-04-17 02:29 -33.55238 -172.39754 40974 ft 496 kts 41°
2026-04-17 02:29 -33.50385 -172.33886 40974 ft 495 kts 41°
2026-04-17 02:30 -33.45530 -172.28026 40974 ft 495 kts 41°
2026-04-17 02:30 -33.40699 -172.22206 40974 ft 495 kts 41°
2026-04-17 02:31 -33.35836 -172.16356 40974 ft 495 kts 41°
2026-04-17 02:31 -33.30967 -172.10509 40974 ft 495 kts 41°
2026-04-17 02:32 -33.26103 -172.04679 40974 ft 495 kts 41°
2026-04-17 02:32 -33.21261 -171.98884 40974 ft 495 kts 41°
2026-04-17 02:33 -33.16395 -171.93068 40974 ft 494 kts 41°
2026-04-17 02:33 -33.11539 -171.87274 40974 ft 493 kts 41°
2026-04-17 02:34 -33.06682 -171.81489 40974 ft 493 kts 41°
2026-04-17 02:34 -33.01851 -171.75747 40974 ft 493 kts 41°
2026-04-17 02:35 -32.96995 -171.69982 40973 ft 492 kts 41°
2026-04-17 02:35 -32.89705 -171.61348 40973 ft 492 kts 40°
2026-04-17 02:36 -32.85671 -171.56579 40973 ft 492 kts 40°
2026-04-17 02:36 -32.80020 -171.49909 40973 ft 492 kts 40°
2026-04-17 02:37 -32.75157 -171.44179 40973 ft 492 kts 40°
2026-04-17 02:37 -32.71111 -171.39419 40973 ft 492 kts 40°
2026-04-17 02:38 -32.66252 -171.33710 40973 ft 491 kts 40°
2026-04-17 02:38 -32.61382 -171.27997 40973 ft 491 kts 40°
2026-04-17 02:39 -32.56520 -171.22305 40973 ft 491 kts 40°
2026-04-17 02:39 -32.51652 -171.16612 40973 ft 491 kts 40°
2026-04-17 02:40 -32.46818 -171.10970 40973 ft 490 kts 40°
2026-04-17 02:40 -32.41948 -171.05295 40973 ft 490 kts 40°
2026-04-17 02:41 -32.37086 -170.99637 40973 ft 490 kts 40°
2026-04-17 02:41 -32.32249 -170.94018 40973 ft 490 kts 40°
2026-04-17 02:42 -32.27390 -170.88382 40973 ft 489 kts 40°
2026-04-17 02:42 -32.22521 -170.82744 40972 ft 489 kts 40°
2026-04-17 02:43 -32.17654 -170.77116 40972 ft 489 kts 40°
2026-04-17 02:43 -32.12791 -170.71503 40972 ft 488 kts 40°
2026-04-17 02:44 -32.07965 -170.65940 40972 ft 488 kts 40°
2026-04-17 02:44 -32.03104 -170.60347 40972 ft 488 kts 39°
2026-04-17 02:45 -31.98246 -170.54765 40972 ft 488 kts 39°
2026-04-17 02:45 -31.93412 -170.49220 40972 ft 487 kts 39°
2026-04-17 02:46 -31.88524 -170.43621 40972 ft 487 kts 39°
2026-04-17 02:46 -31.83664 -170.38064 40972 ft 487 kts 39°
2026-04-17 02:47 -31.78800 -170.32510 40972 ft 487 kts 39°
2026-04-17 02:47 -31.73936 -170.26964 40972 ft 487 kts 39°
2026-04-17 02:48 -31.69069 -170.21424 40972 ft 487 kts 39°
2026-04-17 02:48 -31.64225 -170.15917 40972 ft 487 kts 39°
2026-04-17 02:49 -31.59350 -170.10385 40972 ft 487 kts 39°
2026-04-17 02:49 -31.54473 -170.04856 40971 ft 487 kts 39°
2026-04-17 02:50 -31.49591 -169.99332 40971 ft 487 kts 39°
2026-04-17 02:50 -31.44719 -169.93830 40971 ft 486 kts 39°
2026-04-17 02:51 -31.39880 -169.88376 40977 ft 485 kts 39°
2026-04-17 02:51 -31.35013 -169.82899 40982 ft 485 kts 39°
2026-04-17 02:52 -31.30150 -169.77436 40982 ft 484 kts 38°
2026-04-17 02:52 -31.25285 -169.71977 40982 ft 484 kts 38°
2026-04-17 02:53 -31.20422 -169.66529 40982 ft 484 kts 38°
2026-04-17 02:53 -31.15591 -169.61125 40982 ft 484 kts 38°
2026-04-17 02:54 -31.10726 -169.55690 40982 ft 483 kts 38°
2026-04-17 02:54 -31.05861 -169.50264 40982 ft 483 kts 38°
2026-04-17 02:55 -31.01001 -169.44850 40981 ft 483 kts 38°
2026-04-17 02:55 -30.96134 -169.39437 40981 ft 483 kts 38°
2026-04-17 02:56 -30.91299 -169.34068 40981 ft 483 kts 38°
2026-04-17 02:56 -30.86435 -169.28674 40981 ft 482 kts 38°
2026-04-17 02:57 -30.81566 -169.23282 40981 ft 482 kts 38°
2026-04-17 02:57 -30.76702 -169.17903 40981 ft 482 kts 38°
2026-04-17 02:58 -30.71870 -169.12568 40981 ft 481 kts 38°
2026-04-17 02:58 -30.67009 -169.07209 40981 ft 481 kts 38°
2026-04-17 02:59 -30.62151 -169.01861 40981 ft 481 kts 38°
2026-04-17 02:59 -30.57291 -168.96518 40981 ft 481 kts 37°
2026-04-17 03:00 -30.52445 -168.91198 40981 ft 480 kts 37°
2026-04-17 03:00 -30.47580 -168.85866 40980 ft 480 kts 37°
2026-04-17 03:01 -30.42759 -168.80589 40980 ft 480 kts 37°
2026-04-17 03:01 -30.37900 -168.75279 40980 ft 480 kts 37°
2026-04-17 03:02 -30.33050 -168.69985 40980 ft 479 kts 37°
2026-04-17 03:02 -30.28195 -168.64693 40980 ft 479 kts 37°
2026-04-17 03:03 -30.23346 -168.59416 40980 ft 478 kts 37°
2026-04-17 03:03 -30.18506 -168.54156 40980 ft 478 kts 37°
2026-04-17 03:04 -30.13688 -168.48927 40980 ft 477 kts 37°
2026-04-17 03:04 -30.08842 -168.43676 40979 ft 477 kts 37°
2026-04-17 03:05 -30.04000 -168.38436 40947 ft 477 kts 37°
2026-04-17 03:05 -29.99148 -168.33194 40921 ft 477 kts 37°
2026-04-17 03:06 -29.94296 -168.27958 40919 ft 476 kts 37°
2026-04-17 03:06 -29.89451 -168.22736 40918 ft 476 kts 36°
2026-04-17 03:07 -29.84650 -168.17570 40918 ft 476 kts 36°
2026-04-17 03:07 -29.79812 -168.12371 40918 ft 475 kts 36°
2026-04-17 03:08 -29.74971 -168.07176 40918 ft 475 kts 36°
2026-04-17 03:08 -29.70129 -168.01988 40918 ft 475 kts 36°
2026-04-17 03:09 -29.65287 -167.96807 40918 ft 475 kts 36°
2026-04-17 03:09 -29.60442 -167.91629 40918 ft 475 kts 36°
2026-04-17 03:10 -29.55596 -167.86457 40918 ft 475 kts 36°
2026-04-17 03:10 -29.50748 -167.81290 40918 ft 475 kts 36°
2026-04-17 03:11 -29.45925 -167.76157 40918 ft 476 kts 36°
2026-04-17 03:11 -29.42986 -167.73033 40918 ft 476 kts 36°
2026-04-17 03:12 -29.38120 -167.67866 40918 ft 476 kts 36°
2026-04-17 03:12 -29.33257 -167.62709 40918 ft 476 kts 36°
2026-04-17 03:13 -29.28390 -167.57554 40918 ft 476 kts 36°
2026-04-17 03:13 -29.23557 -167.52441 40918 ft 476 kts 36°
2026-04-17 03:14 -29.18698 -167.47309 40918 ft 476 kts 36°
2026-04-17 03:14 -29.13820 -167.42163 40918 ft 475 kts 35°
2026-04-17 03:15 -29.08948 -167.37031 40918 ft 476 kts 35°
2026-04-17 03:15 -29.04073 -167.31904 40929 ft 475 kts 36°
2026-04-17 03:16 -28.99248 -167.26833 40937 ft 474 kts 36°
2026-04-17 03:16 -28.94392 -167.21737 40938 ft 473 kts 36°
2026-04-17 03:17 -28.89538 -167.16651 40938 ft 473 kts 36°
2026-04-17 03:17 -28.84681 -167.11569 40938 ft 473 kts 36°
2026-04-17 03:18 -28.79861 -167.06532 40938 ft 473 kts 36°
2026-04-17 03:18 -28.75012 -167.01471 40938 ft 472 kts 36°
2026-04-17 03:19 -28.70157 -166.96411 40938 ft 472 kts 35°
2026-04-17 03:19 -28.65318 -166.91374 40938 ft 472 kts 35°
2026-04-17 03:20 -28.60468 -166.86333 40938 ft 471 kts 35°
2026-04-17 03:20 -28.55625 -166.81305 40938 ft 471 kts 35°
2026-04-17 03:21 -28.50786 -166.76287 40937 ft 470 kts 35°
2026-04-17 03:21 -28.45984 -166.71314 40937 ft 469 kts 35°
2026-04-17 03:22 -28.41150 -166.66315 40937 ft 469 kts 35°
2026-04-17 03:22 -28.36327 -166.61333 40937 ft 469 kts 35°
2026-04-17 03:23 -28.31517 -166.56372 40937 ft 468 kts 35°
2026-04-17 03:23 -28.26687 -166.51397 40937 ft 467 kts 35°
2026-04-17 03:24 -28.21875 -166.46446 40937 ft 467 kts 34°
2026-04-17 03:24 -28.17058 -166.41497 40937 ft 467 kts 34°
2026-04-17 03:25 -28.12248 -166.36561 40937 ft 466 kts 34°
2026-04-17 03:25 -28.07444 -166.31637 40937 ft 466 kts 34°
2026-04-17 03:26 -28.03444 -166.27541 40937 ft 466 kts 34°
2026-04-17 03:26 -27.98640 -166.22629 40937 ft 465 kts 34°
2026-04-17 03:27 -27.93838 -166.17725 40937 ft 465 kts 34°
2026-04-17 03:27 -27.89031 -166.12821 40937 ft 465 kts 34°
2026-04-17 03:28 -27.84235 -166.07936 40937 ft 464 kts 34°
2026-04-17 03:28 -27.79462 -166.03080 40937 ft 465 kts 34°
2026-04-17 03:29 -27.74652 -165.98193 40937 ft 465 kts 34°
2026-04-17 03:29 -27.69841 -165.93311 40937 ft 465 kts 34°
2026-04-17 03:30 -27.65028 -165.88431 40937 ft 465 kts 34°
2026-04-17 03:30 -27.60200 -165.83545 40937 ft 466 kts 34°
2026-04-17 03:31 -27.55373 -165.78663 40937 ft 466 kts 34°
2026-04-17 03:31 -27.50548 -165.73790 40937 ft 466 kts 34°
2026-04-17 03:32 -27.45715 -165.68916 40937 ft 467 kts 34°
2026-04-17 03:32 -27.40865 -165.64030 40937 ft 468 kts 34°
2026-04-17 03:33 -27.36011 -165.59146 40937 ft 468 kts 34°
2026-04-17 03:33 -27.31154 -165.54264 40937 ft 468 kts 34°
2026-04-17 03:34 -27.26285 -165.49376 40937 ft 469 kts 34°
2026-04-17 03:34 -27.21411 -165.44490 40937 ft 470 kts 34°
2026-04-17 03:35 -27.16536 -165.39608 40936 ft 470 kts 34°
2026-04-17 03:35 -27.11649 -165.34721 40936 ft 471 kts 34°
2026-04-17 03:36 -27.04305 -165.27386 40936 ft 472 kts 34°
2026-04-17 03:37 -26.99426 -165.22521 40936 ft 472 kts 34°
2026-04-17 03:37 -26.94514 -165.17627 40936 ft 473 kts 34°
2026-04-17 03:38 -26.89596 -165.12733 40936 ft 473 kts 34°
2026-04-17 03:38 -26.84676 -165.07842 40936 ft 473 kts 34°
2026-04-17 03:39 -26.79748 -165.02950 40936 ft 474 kts 34°
2026-04-17 03:39 -26.74808 -164.98062 40936 ft 474 kts 34°
2026-04-17 03:40 -26.69860 -164.93185 40936 ft 474 kts 34°
2026-04-17 03:40 -26.64894 -164.88322 40936 ft 475 kts 34°
2026-04-17 03:41 -26.59920 -164.83467 40936 ft 475 kts 34°
2026-04-17 03:41 -26.54939 -164.78615 40936 ft 475 kts 34°
2026-04-17 03:42 -26.49946 -164.73759 40936 ft 476 kts 34°
2026-04-17 03:42 -26.44957 -164.68918 40936 ft 476 kts 34°
2026-04-17 03:43 -26.39941 -164.64066 40936 ft 477 kts 34°
2026-04-17 03:43 -26.34957 -164.59256 40936 ft 477 kts 34°
2026-04-17 03:44 -26.29933 -164.54415 40936 ft 478 kts 34°
2026-04-17 03:44 -26.24896 -164.49579 40936 ft 478 kts 34°
2026-04-17 03:45 -26.19852 -164.44750 40936 ft 478 kts 34°
2026-04-17 03:45 -26.14801 -164.39923 40936 ft 479 kts 34°
2026-04-17 03:46 -26.09741 -164.35094 40936 ft 479 kts 34°
2026-04-17 03:46 -26.04678 -164.30272 40936 ft 479 kts 34°
2026-04-17 03:47 -25.99610 -164.25462 40936 ft 479 kts 34°
2026-04-17 03:47 -25.94530 -164.20651 40936 ft 480 kts 34°
2026-04-17 03:48 -25.89444 -164.15841 40936 ft 480 kts 34°
2026-04-17 03:48 -25.84394 -164.11071 40936 ft 480 kts 34°
2026-04-17 03:49 -25.79302 -164.06268 40936 ft 480 kts 34°
2026-04-17 03:49 -25.74210 -164.01469 40936 ft 480 kts 34°
2026-04-17 03:50 -25.69116 -163.96674 40936 ft 480 kts 34°
2026-04-17 03:50 -25.64026 -163.91887 40936 ft 480 kts 33°
2026-04-17 03:51 -25.58935 -163.87105 40936 ft 480 kts 33°
2026-04-17 03:51 -25.53841 -163.82325 40935 ft 480 kts 33°
2026-04-17 03:52 -25.48746 -163.77552 40935 ft 480 kts 34°
2026-04-17 03:52 -25.43631 -163.72778 40935 ft 480 kts 33°
2026-04-17 03:53 -25.38518 -163.68017 40935 ft 480 kts 33°
2026-04-17 03:53 -25.33402 -163.63260 40935 ft 480 kts 34°
2026-04-17 03:54 -25.28283 -163.58514 40935 ft 480 kts 33°
2026-04-17 03:54 -25.23159 -163.53778 40935 ft 480 kts 33°
2026-04-17 03:55 -25.18032 -163.49046 40935 ft 481 kts 33°
2026-04-17 03:55 -25.12894 -163.44312 40935 ft 481 kts 33°
2026-04-17 03:56 -25.07759 -163.39587 40935 ft 480 kts 33°
2026-04-17 03:56 -25.02625 -163.34873 40935 ft 480 kts 33°
2026-04-17 03:57 -24.97490 -163.30172 40935 ft 480 kts 33°
2026-04-17 03:57 -24.92383 -163.25503 40935 ft 480 kts 33°
2026-04-17 03:58 -24.87242 -163.20814 40935 ft 480 kts 33°
2026-04-17 03:58 -24.82097 -163.16130 40935 ft 480 kts 33°
2026-04-17 03:59 -24.76947 -163.11456 40935 ft 480 kts 33°
2026-04-17 03:59 -24.71795 -163.06788 40935 ft 480 kts 33°
2026-04-17 04:00 -24.66642 -163.02124 40935 ft 480 kts 33°
2026-04-17 04:00 -24.61609 -162.97264 40935 ft 484 kts 38°
2026-04-17 04:01 -24.56861 -162.91980 40935 ft 486 kts 40°
2026-04-17 04:01 -24.52147 -162.86651 40935 ft 485 kts 39°
2026-04-17 04:02 -24.47376 -162.81414 40935 ft 485 kts 38°
2026-04-17 04:02 -24.42568 -162.76328 40935 ft 484 kts 37°
2026-04-17 04:03 -24.37601 -162.71248 40935 ft 483 kts 37°
2026-04-17 04:03 -24.32630 -162.66296 40935 ft 482 kts 36°
2026-04-17 04:04 -24.27615 -162.61414 40935 ft 482 kts 36°
2026-04-17 04:04 -24.22578 -162.56581 40935 ft 481 kts 35°
2026-04-17 04:05 -24.17550 -162.51802 40935 ft 481 kts 35°
2026-04-17 04:05 -24.13313 -162.47794 40934 ft 480 kts 35°
2026-04-17 04:06 -24.07428 -162.42257 40935 ft 480 kts 35°
2026-04-17 04:06 -24.02350 -162.37503 40935 ft 480 kts 35°
2026-04-17 04:07 -23.97271 -162.32766 40935 ft 480 kts 35°
2026-04-17 04:07 -23.92179 -162.28031 40935 ft 480 kts 34°
2026-04-17 04:08 -23.87091 -162.23309 40935 ft 480 kts 34°
2026-04-17 04:08 -23.81999 -162.18593 40935 ft 480 kts 34°
2026-04-17 04:09 -23.76909 -162.13886 40935 ft 480 kts 34°
2026-04-17 04:09 -23.71825 -162.09192 40934 ft 480 kts 34°
2026-04-17 04:10 -23.66742 -162.04505 40934 ft 480 kts 34°
2026-04-17 04:10 -23.61639 -161.99806 40934 ft 480 kts 34°
2026-04-17 04:11 -23.56534 -161.95110 40934 ft 480 kts 34°
2026-04-17 04:11 -23.51425 -161.90416 40934 ft 480 kts 34°
2026-04-17 04:12 -23.46315 -161.85726 40934 ft 480 kts 34°
2026-04-17 04:12 -23.41210 -161.81045 40934 ft 480 kts 35°
2026-04-17 04:13 -23.36092 -161.76358 40934 ft 480 kts 35°
2026-04-17 04:13 -23.31837 -161.72465 40934 ft 481 kts 35°
2026-04-17 04:14 -23.26716 -161.67784 40934 ft 481 kts 35°
2026-04-17 04:14 -23.21591 -161.63105 40934 ft 481 kts 35°
2026-04-17 04:15 -23.16470 -161.58433 40934 ft 481 kts 35°
2026-04-17 04:15 -23.11347 -161.53765 40934 ft 481 kts 35°
2026-04-17 04:16 -23.06224 -161.49101 40934 ft 481 kts 35°
2026-04-17 04:16 -23.01097 -161.44439 40934 ft 481 kts 35°
2026-04-17 04:17 -22.95965 -161.39777 40934 ft 481 kts 35°
2026-04-17 04:17 -22.90831 -161.35118 40934 ft 481 kts 35°
2026-04-17 04:18 -22.85730 -161.30493 40934 ft 481 kts 35°
2026-04-17 04:18 -22.80579 -161.25830 40497 ft 485 kts 35°
2026-04-17 04:18 -22.77984 -161.23483 40042 ft 486 kts 35°
2026-04-17 04:19 -22.75393 -161.21139 39592 ft 485 kts 35°
2026-04-17 04:19 -22.72798 -161.18793 39142 ft 484 kts 35°
2026-04-17 04:19 -22.70214 -161.16456 38693 ft 484 kts 35°
2026-04-17 04:19 -22.67627 -161.14119 38243 ft 485 kts 35°
2026-04-17 04:20 -22.65033 -161.11777 37788 ft 486 kts 35°
2026-04-17 04:20 -22.62448 -161.09444 37204 ft 482 kts 35°
2026-04-17 04:20 -22.59879 -161.07126 36566 ft 481 kts 36°
2026-04-17 04:20 -22.57300 -161.04801 35917 ft 482 kts 36°
2026-04-17 04:21 -22.54750 -161.02506 35277 ft 484 kts 36°
2026-04-17 04:21 -22.52157 -161.00173 34628 ft 486 kts 36°
2026-04-17 04:21 -22.49552 -160.97831 33979 ft 488 kts 36°
2026-04-17 04:21 -22.46936 -160.95480 33330 ft 490 kts 36°
2026-04-17 04:22 -22.44306 -160.93118 32682 ft 493 kts 36°
2026-04-17 04:22 -22.41666 -160.90747 32033 ft 495 kts 36°
2026-04-17 04:22 -22.39012 -160.88365 31375 ft 497 kts 36°
2026-04-17 04:22 -22.36338 -160.85966 30667 ft 500 kts 36°
2026-04-17 04:23 -22.33649 -160.83554 29947 ft 504 kts 36°
2026-04-17 04:23 -22.30941 -160.81127 29223 ft 506 kts 36°
2026-04-17 04:23 -22.28251 -160.78713 28502 ft 493 kts 36°
2026-04-17 04:23 -22.25723 -160.76427 27769 ft 454 kts 36°
2026-04-17 04:24 -22.23372 -160.74297 27037 ft 433 kts 36°
2026-04-17 04:24 -22.21089 -160.72244 26310 ft 423 kts 36°
2026-04-17 04:24 -22.18844 -160.70238 25583 ft 415 kts 35°
2026-04-17 04:24 -22.16636 -160.68273 24857 ft 408 kts 35°
2026-04-17 04:25 -22.14458 -160.66338 24131 ft 403 kts 35°
2026-04-17 04:25 -22.12302 -160.64424 23404 ft 399 kts 35°
2026-04-17 04:25 -22.10165 -160.62539 22679 ft 395 kts 33°
2026-04-17 04:25 -22.07954 -160.60825 21955 ft 390 kts 29°
2026-04-17 04:26 -22.05683 -160.59257 21258 ft 385 kts 27°
2026-04-17 04:26 -22.03424 -160.57797 20591 ft 382 kts 26°
2026-04-17 04:26 -22.01134 -160.56367 19915 ft 378 kts 25°
2026-04-17 04:26 -21.98867 -160.54976 19240 ft 373 kts 25°
2026-04-17 04:27 -21.96632 -160.53612 18564 ft 366 kts 25°
2026-04-17 04:27 -21.94443 -160.52275 17927 ft 356 kts 25°
2026-04-17 04:27 -21.92393 -160.50917 17517 ft 337 kts 31°
2026-04-17 04:27 -21.90591 -160.49445 17138 ft 312 kts 32°
2026-04-17 04:28 -21.88904 -160.48100 16755 ft 292 kts 31°
2026-04-17 04:28 -21.87307 -160.46844 16372 ft 276 kts 30°
2026-04-17 04:28 -21.85790 -160.45654 15993 ft 265 kts 30°
2026-04-17 04:28 -21.84310 -160.44496 15578 ft 267 kts 30°
2026-04-17 04:29 -21.82783 -160.43310 15112 ft 274 kts 31°
2026-04-17 04:29 -21.81213 -160.42101 14640 ft 280 kts 31°
2026-04-17 04:29 -21.79617 -160.40881 14165 ft 283 kts 31°
2026-04-17 04:29 -21.78009 -160.39641 13702 ft 285 kts 30°
2026-04-17 04:30 -21.76380 -160.38411 13234 ft 286 kts 31°
2026-04-17 04:30 -21.74782 -160.37144 12669 ft 291 kts 32°
2026-04-17 04:30 -21.73104 -160.35859 12082 ft 294 kts 31°
2026-04-17 04:30 -21.71464 -160.34577 11491 ft 295 kts 31°
2026-04-17 04:31 -21.69809 -160.33255 10896 ft 297 kts 34°
2026-04-17 04:31 -21.68125 -160.31969 10305 ft 297 kts 31°
2026-04-17 04:31 -21.66442 -160.30670 9717 ft 297 kts 32°
2026-04-17 04:31 -21.64753 -160.29411 9118 ft 295 kts 31°
2026-04-17 04:32 -21.63053 -160.28180 8517 ft 294 kts 31°
2026-04-17 04:32 -21.61362 -160.26973 8047 ft 288 kts 31°
2026-04-17 04:32 -21.59722 -160.25805 7793 ft 278 kts 31°
2026-04-17 04:32 -21.58132 -160.24675 7540 ft 271 kts 31°
2026-04-17 04:33 -21.56573 -160.23571 7288 ft 266 kts 30°
2026-04-17 04:33 -21.55039 -160.22484 7037 ft 262 kts 30°
2026-04-17 04:33 -21.53526 -160.21415 6848 ft 258 kts 30°
2026-04-17 04:33 -21.52069 -160.20321 6720 ft 252 kts 28°
2026-04-17 04:34 -21.48778 -160.19521 6476 ft 241 kts
2026-04-17 04:34 -21.47115 -160.19386 6351 ft 239 kts
2026-04-17 04:34 -21.45464 -160.19248 6224 ft 237 kts
2026-04-17 04:35 -21.43827 -160.19042 6100 ft 237 kts
2026-04-17 04:35 -21.42217 -160.18681 5985 ft 236 kts 13°
2026-04-17 04:35 -21.40658 -160.18169 5947 ft 233 kts 17°
2026-04-17 04:35 -21.39153 -160.17544 5936 ft 230 kts 20°
2026-04-17 04:36 -21.37703 -160.16846 5934 ft 227 kts 23°
2026-04-17 04:36 -21.36293 -160.16101 5933 ft 225 kts 24°
2026-04-17 04:36 -21.34912 -160.15327 5933 ft 224 kts 25°
2026-04-17 04:36 -21.33439 -160.14476 5837 ft 255 kts 26°
2026-04-17 04:37 -21.31815 -160.13516 5622 ft 276 kts 27°
2026-04-17 04:37 -21.30121 -160.12492 5401 ft 277 kts 27°
2026-04-17 04:37 -21.28462 -160.11477 5175 ft 273 kts 28°
2026-04-17 04:37 -21.26827 -160.10471 4948 ft 269 kts 28°
2026-04-17 04:38 -21.25231 -160.09487 4724 ft 266 kts 28°
2026-04-17 04:38 -21.23731 -160.08560 4534 ft 233 kts 28°
2026-04-17 04:38 -21.22406 -160.07732 4344 ft 210 kts 31°
2026-04-17 04:38 -21.21407 -160.06684 4159 ft 196 kts 51°
2026-04-17 04:39 -21.20791 -160.05423 3949 ft 188 kts 65°
2026-04-17 04:39 -21.20441 -160.04057 3683 ft 196 kts 75°
2026-04-17 04:39 -21.20262 -160.02560 3418 ft 209 kts 81°
2026-04-17 04:39 -21.20202 -160.00974 3150 ft 217 kts 85°
2026-04-17 04:40 -21.20220 -159.99352 3010 ft 214 kts 87°
2026-04-17 04:40 -21.20242 -159.97797 2953 ft 203 kts 86°
2026-04-17 04:40 -21.20251 -159.96320 2929 ft 193 kts 85°
2026-04-17 04:40 -21.20254 -159.94886 2601 ft 192 kts 85°
2026-04-17 04:41 -21.20258 -159.93545 2397 ft 164 kts 85°
2026-04-17 04:41 -21.20264 -159.92416 2204 ft 138 kts 84°
2026-04-17 04:41 -21.20262 -159.91445 1910 ft 126 kts 83°
2026-04-17 04:41 -21.20258 -159.90549 1597 ft 116 kts 83°
2026-04-17 04:42 -21.20253 -159.89680 1144 ft 118 kts 84°
2026-04-17 04:42 -21.20252 -159.88768 1076 ft 126 kts 85°
2026-04-17 04:42 -21.20256 -159.87834 1063 ft 124 kts 85°
2026-04-17 04:42 -21.20257 -159.86903 977 ft 127 kts 85°
2026-04-17 04:43 -21.20258 -159.85958 905 ft 126 kts 85°
2026-04-17 04:43 -21.20259 -159.85019 835 ft 128 kts 85°
2026-04-17 04:43 -21.20261 -159.84101 642 ft 112 kts 84°
2026-04-17 04:43 -21.20291 -159.83230 411 ft 118 kts 85°
2026-04-17 04:44 -21.20273 -159.82343 224 ft 111 kts 82°
2026-04-17 04:44 -21.20265 -159.81541 52 ft 111 kts 83°
2026-04-17 04:44 -21.20262 -159.80861 26 ft 52 kts 88°
2026-04-17 04:44 -21.20261 -159.80568 26 ft 39 kts 89°
2026-04-17 04:45 -21.20258 -159.80210 26 ft 37 kts 95°
2026-04-17 04:45 -21.20263 -159.80120 26 ft 17 kts 90°
2026-04-17 04:45 -21.20262 -159.79982 26 ft 25 kts 90°
2026-04-17 04:45 -21.20241 -159.79821 26 ft 16 kts 10°
2026-04-17 04:46 -21.20128 -159.79812 26 ft 15 kts 39°
2026-04-17 04:46 -21.20078 -159.79776 26 ft 8 kts 359°
2026-04-17 04:46 -21.20070 -159.79776 26 ft 0 kts